Location: Newark
(22.3060°N, 114.2134°E)
Time: 07:59:13
(UTC+00:00)

Altair - Visible Passes

Search period start: 24 July 2021 00:00
Search period end: 03 August 2021 00:00
Orbit: 1501 x 1682 km, 47.2° (Epoch: 23 July)

Date Brightness Start Highest point End Pass type
(mag) Time Alt. Az. Time Alt. Az. Time Alt. Az.
24 Jul 9.2 17:00:42 17° E 17:00:42 17° E 17:02:47 10° ENE visible
24 Jul 7.4 18:58:42 66° WNW 18:59:25 68° NW 19:08:36 10° NE visible
24 Jul 9.0 20:58:48 10° WNW 21:05:29 21° NNW 21:12:06 10° NNE visible
25 Jul 9.5 16:36:47 11° ENE 16:36:47 11° ENE 16:37:17 10° ENE visible
25 Jul 7.4 18:34:48 73° NNW 18:34:48 73° NNW 18:43:29 10° NE visible
25 Jul 8.9 20:33:08 10° WNW 20:40:06 23° NNW 20:47:01 10° NNE visible
26 Jul 7.7 18:10:51 63° NNE 18:10:51 63° NNE 18:18:21 10° NE visible
26 Jul 8.8 20:08:52 14° WNW 20:14:45 25° NNW 20:21:57 10° NNE visible
27 Jul 8.0 17:46:53 50° NE 17:46:53 50° NE 17:53:12 10° NE visible
27 Jul 8.7 19:44:53 19° WNW 19:49:26 27° NNW 19:56:54 10° NNE visible
28 Jul 8.4 17:22:51 39° NE 17:22:51 39° NE 17:28:03 10° NE visible
28 Jul 8.6 19:20:52 24° WNW 19:24:07 29° NNW 19:31:49 10° NNE visible
28 Jul 9.4 21:27:58 10° NNW 21:32:02 13° N 21:36:05 10° NNE visible
29 Jul 8.7 16:58:48 31° NE 16:58:48 31° NE 17:02:52 10° NE visible
29 Jul 8.5 18:56:48 29° NW 18:58:48 31° NNW 19:06:46 10° NNE visible
29 Jul 9.4 21:02:18 10° NW 21:06:33 14° N 21:10:46 10° NNE visible
30 Jul 9.0 16:34:43 24° NE 16:34:43 24° NE 16:37:41 10° NE visible
30 Jul 8.4 18:32:42 34° NW 18:33:30 34° NW 18:41:43 10° NNE visible
30 Jul 9.4 20:36:36 10° NW 20:41:05 14° N 20:45:32 10° NNE visible
31 Jul 9.2 16:10:35 18° NE 16:10:35 18° NE 16:12:28 10° NE visible
31 Jul 8.3 18:08:34 37° NNW 18:08:34 37° NNW 18:16:39 10° NNE visible
31 Jul 9.4 20:10:52 10° NW 20:15:37 15° NNW 20:20:20 10° NNE visible
01 Aug 9.4 15:46:24 13° ENE 15:46:24 13° ENE 15:47:14 10° NE visible
01 Aug 8.4 17:44:23 39° NNW 17:44:23 39° NNW 17:51:34 10° NNE visible
01 Aug 9.4 19:45:07 10° NW 19:50:09 15° NNW 19:55:10 10° NNE visible
02 Aug 8.4 17:20:10 38° N 17:20:10 38° N 17:26:30 10° NNE visible
02 Aug 9.4 19:19:21 10° NW 19:24:43 16° NNW 19:30:01 10° NNE visible
02 Aug 9.5 21:28:38 10° NNW 21:33:32 15° NNE 21:38:24 10° NE visible
